CAPE
0 0 0 0 0 0 0 0 0 0 0 0 0 0 0 0 0 1 1 1 2 14 6 7 7 19 15
0 0 0 0 0 0 0 0 0 0 0 0 0 0 0 0 0 1 1 1 2 6 7 6 16 7 11
0 0 0 0 0 0 0 0 0 0 0 0 0 0 0 0 0 1 2 1 2 5 9 5 9 8 6
0 0 0 0 0 0 0 0 0 0 0 0 0 0 0 0 0 0 1 2 2 5 10 4 9 9 5
0 0 0 0 0 0 0 0 0 0 0 0 0 0 0 0 0 0 0 1 2 1 8 5 7 4 3
0 0 0 0 0 0 0 0 0 0 0 0 0 0 0 0 0 0 0 1 3 1 4 5 4 3 3
0 0 0 0 0 0 0 0 0 0 0 0 0 0 0 0 0 0 0 2 3 3 8 3 5 3 3
0 0 0 0 0 0 0 0 0 0 0 0 0 0 0 0 0 0 3 3 1 1 11 0 4 1 3
0 0 0 0 0 0 0 0 0 1 0 0 1 0 0 0 0 0 5 3 0 0 9 3 3 3 0
0 0 0 0 0 0 0 0 0 0 0 0 0 0 0 0 0 0 0 0 0 0 9 2 4 0 0
0 0 0 0 0 0 0 0 0 0 0 0 0 0 0 1 0 0 0 0 0 0 7 3 4 2 0
0 0 0 0 0 0 0 0 0 0 0 0 0 0 0 0 0 0 0 0 0 0 0 0 0 3 3
0 0 0 0 0 0 0 0 0 0 0 0 0 0 0 0 0 0 0 0 0 0 0 0 0 0 0
0 0 0 0 0 0 0 0 0 0 0 0 0 0 0 0 0 0 0 0 0 0 0 0 0 0 0
0 0 0 0 0 0 0 0 0 0 0 0 0 0 0 0 0 0 1 0 0 0 0 0 0 0 0
0 0 0 0 0 0 0 0 0 0 0 0 0 0 0 0 0 0 0 0 0 0 0 0 0 0 0
0 0 0 0 0 0 0 0 0 0 0 0 0 0 0 0 0 2 0 0 0 0 0 0 0 0 0
CIN
-0 -0 -0 -0 -0 -0 -0 -0 -0 -0 -0 -0 -0 -0 -0 -0 -0 -0 -0 -0 -0 -0 -0 -0 -0 -0 -0
-0 -0 -0 -0 -0 -0 -0 -0 -0 -0 -0 -0 -0 -0 -0 -0 -0 -0 -0 -0 -0 -0 -0 -0 -0 -0 -0
-0 -0 -0 -0 -0 -0 -0 -0 -0 -0 -0 -0 -0 -0 -0 -0 -0 -0 -0 -0 -0 -0 -0 -0 -0 -0 -0
-0 -0 -0 -0 -0 -0 -0 -0 -0 -0 -0 -0 -0 -0 -0 -0 -0 -0 -0 -0 -0 -0 -0 -0 -0 -0 -0
-0 -0 -0 -0 -0 -0 -0 -0 -0 -0 -0 -0 -0 -0 -0 -0 -0 -0 -0 -0 -0 -0 -0 -0 -0 -0 -0
-0 -0 -0 -0 -0 -0 -0 -0 -0 -0 -0 -0 -0 -0 -0 -0 -0 -0 -0 -0 -0 -0 -0 -0 -0 -0 -0
-0 -0 -0 -0 -0 -0 -0 -0 -0 -0 -0 -0 -0 -0 -0 -0 -0 -0 -0 -0 -0 -0 -0 -0 -0 -0 -0
-0 -0 -0 -0 -0 -0 -0 -0 -0 -0 -0 -0 -0 -0 -0 -0 -0 -0 -0 -0 -0 -0 -0 -0 -1 -0 -0
-0 -0 -0 -0 -0 -0 -0 -0 -0 -0 -0 -0 -0 -0 -0 -0 -0 -0 -0 -0 -0 -0 -0 -0 -0 -0 -0
-0 -0 -0 -0 -0 -0 -0 -0 -0 -0 -0 -0 -0 -0 -0 -0 -0 -0 -0 -0 -0 -0 -0 -0 -0 -0 -0
-0 -0 -0 -0 -0 -0 -0 -0 -0 -0 -0 -0 -0 -0 -0 -0 -0 -0 -0 -0 -0 -0 -0 -0 -0 -1 -0
-0 -0 -0 -0 -0 -0 -0 -0 -0 -0 -0 -0 -0 -0 -0 -0 -0 -0 -0 -0 -0 -0 -0 -0 -0 -0 -0
-0 -0 -0 -0 -0 -0 -0 -0 -0 -0 -0 -0 -0 -0 -0 -0 -0 -0 -0 -1 -0 -0 -0 -0 -0 -0 -0
-0 -0 -0 -0 -0 -0 -0 -0 -0 -0 -0 -0 -0 -0 -0 -0 -0 -0 -0 -0 -0 -0 -0 -0 -0 -0 -0
-0 -0 -0 -0 -0 -0 -0 -0 -0 -0 -0 -0 -0 -0 -0 -0 -0 -0 -0 -0 -0 -0 -0 -0 -0 -0 -0
-0 -0 -0 -0 -0 -0 -0 -0 -0 -0 -0 -0 -0 -0 -0 -0 -0 -0 -0 -0 -0 -0 -0 -0 -0 -0 -0
-0 -0 -0 -0 -0 -0 -0 -0 -0 -0 -0 -0 -0 -0 -0 -0 -0 -0 -0 -0 -0 -0 -0 -0 -1 -0 -0
Wind_Speed
5 5 6 7 6 7 6 6 6 17 15 13 12 11 9 8 8 8 8 8 8 10 10 12 13 14 16
5 6 7 7 7 8 7 7 7 11 14 14 12 11 10 9 10 9 8 9 8 8 10 10 12 13 15
6 2 4 3 4 5 6 6 5 7 12 15 13 12 13 12 11 10 9 9 9 8 9 8 11 12 13
8 6 4 3 4 5 6 5 6 6 10 11 11 13 13 13 12 10 10 11 9 9 9 6 9 10 12
8 5 7 5 8 5 9 5 7 5 5 5 5 5 6 13 11 12 13 12 10 9 10 6 8 9 11
11 11 14 11 6 6 5 4 4 7 7 7 6 6 6 6 12 13 14 10 9 9 9 5 7 7 8
14 13 13 9 4 6 8 5 5 3 7 4 6 6 6 7 13 12 13 10 8 8 8 6 5 6 7
17 16 11 5 12 9 9 6 2 2 6 5 4 5 5 4 12 12 13 9 6 7 7 4 5 7 7
18 13 8 12 11 7 6 6 4 4 5 1 3 2 3 3 4 12 13 9 7 7 7 5 6 8 7
5 11 10 11 18 12 7 8 4 2 7 7 5 4 3 3 3 2 3 9 8 8 8 5 7 3 4
5 3 4 6 8 10 10 10 7 5 6 5 3 5 1 3 2 3 3 3 3 4 9 8 8 6 2
4 5 6 7 7 7 4 4 2 2 11 9 4 5 5 3 3 3 3 2 3 2 2 4 7 8 8
6 7 5 4 6 6 5 6 4 4 9 5 4 5 4 4 3 3 4 4 3 2 3 3 2 1 3
6 3 4 5 5 5 5 7 4 3 4 6 5 6 3 2 2 2 2 2 4 2 2 2 3 3 3
4 5 5 5 6 6 5 6 4 7 6 5 5 3 2 4 3 3 3 2 2 2 2 2 2 2 3
5 6 7 7 7 6 5 7 7 7 7 6 6 5 2 1 5 3 2 2 2 4 2 1 2 3 3
6 7 7 7 10 7 7 7 6 7 7 8 8 7 6 5 1 10 3 3 3 3 3 3 1 2 2
Wind_Direction
245 155 182 203 192 202 220 197 217 222 227 225 227 232 239 254 263 266 283 291 299 316 316 326 333 340 337
221 204 201 199 209 196 212 217 223 211 217 229 230 233 241 249 254 256 267 283 293 309 307 320 328 334 337
246 158 189 186 204 224 210 211 207 213 207 223 226 234 235 242 250 246 250 266 281 291 307 321 323 331 335
231 226 192 175 200 205 221 219 219 204 209 214 219 235 241 244 251 244 245 257 269 284 300 310 321 328 334
230 222 212 187 206 191 219 193 208 183 190 223 213 216 225 241 240 240 237 244 261 278 287 295 313 323 332
233 230 234 222 208 193 170 164 224 188 195 221 193 213 215 210 217 227 220 230 252 274 275 284 297 312 332
237 239 245 225 171 177 191 193 225 165 181 225 175 207 211 211 215 231 226 229 234 272 283 276 299 307 323
242 246 242 201 195 195 191 197 69 151 183 205 171 201 199 182 209 220 211 221 233 266 273 270 289 294 306
242 251 208 191 170 137 184 176 199 178 208 180 163 133 201 208 192 216 201 208 243 260 249 258 274 290 284
233 236 209 190 190 193 184 205 186 186 191 184 146 145 215 193 170 139 151 210 235 252 232 234 262 263 289
223 195 189 194 204 202 197 195 200 192 172 171 155 159 281 123 144 161 167 196 215 229 233 239 257 260 285
196 201 199 202 204 193 164 166 133 177 161 180 159 159 163 147 157 158 180 180 190 220 189 249 275 264 248
219 218 203 183 134 132 117 110 89 136 168 166 148 153 154 147 154 160 151 187 177 194 174 228 226 241 295
227 196 140 155 169 162 158 157 143 145 133 142 132 146 143 140 141 140 144 174 174 175 179 222 250 194 243
180 170 173 166 172 173 170 169 169 164 159 155 145 140 111 143 173 183 164 164 159 159 156 247 268 234 191
199 186 181 182 178 181 180 185 181 170 168 162 157 154 127 223 224 153 146 170 157 149 147 221 247 246 192
209 200 190 189 186 181 184 182 182 174 171 161 169 170 170 181 96 196 176 171 143 155 173 179 230 302 270